Tomahawk, WI

5:56 PM CST on February 06, 2016 (GMT -0600)
Tomahawk

Weather History for KTKV - November, 2013

Change the Weather History Date:

Sunday, November 24, 2013

  Actual Average (KRHI) Record (KRHI)
Temperature  
Mean Temperature 7 °F 26 °F  
Max Temperature 21 °F 33 °F 54 °F (1988)
Min Temperature -7 °F 18 °F -11 °F (1950)
Degree Days  
Heating Degree Days 58 39  
Month to date heating degree days 795  
Since 1 July heating degree days 1888  
Cooling Degree Days 0 0  
Month to date cooling degree days 0  
Year to date cooling degree days 261  
Moisture  
Dew Point -1 °F    
Average Humidity 67    
Maximum Humidity 85    
Minimum Humidity 49    
Precipitation  
Precipitation 0.00 in 0.06 in 1.01 in (2001)
Month to date precipitation 1.49  
Year to date precipitation 29.61  
Snow  
Snow 0.00 in - 5.90 in (2014)
Month to date snowfall  
Since 1 July snowfall  
Since 1 September snowfall  
Snow Depth -    
Sea Level Pressure  
Sea Level Pressure 30.33 in    
Wind  
Wind Speed 4 mph (SSW)    
Max Wind Speed 10 mph    
Max Gust Speed 25 mph    
Visibility 10 miles    
Events      
T = Trace of Precipitation, MM = Missing Value Source: NWS Daily Summary

Daily Weather History Graph

Daily Weather History Graph

Search for Another Location

Airport or City:

Trip Planner

Search our weather history database for the weather conditions in past years. The results will help you decide how hot, cold, wet, or windy it might be!

Date:

Astronomy

Nov. 24, 2013 Rise Set
Actual Time 7:10 AM CST 4:21 PM CST
Civil Twilight 6:37 AM CST 4:54 PM CST
Nautical Twilight 6:01 AM CST 5:30 PM CST
Astronomical Twilight 5:25 AM CST 6:05 PM CST
Moon 10:56 PM CST (11/24) 11:49 AM CST (11/24)
Length of Visible Light 10h 16m
Length of Day
9h 10m
Waning Gibbous, 60% of the Moon is Illuminated
Nov 24
Waning Gibbous
Nov 25
Last Quarter
Dec 2
New
Dec 9
First Quarter
Dec 17
Full

Hourly Weather History & Observations

Time (CST) Temp. Windchill Dew Point Humidity Pressure Visibility Wind Dir Wind Speed Gust Speed Precip Events Conditions
12:15 AM -0.9 °F -8.9 °F -5.4 °F 81% 30.58 in 10.0 mi West 3.5 mph - N/A   Clear
12:35 AM -1.3 °F -11.4 °F -6.2 °F 80% 30.58 in 10.0 mi West 4.6 mph - N/A   Clear
12:55 AM -2.6 °F -10.8 °F -7.1 °F 81% 30.57 in 10.0 mi West 3.5 mph - N/A   Clear
1:15 AM -1.7 °F -11.8 °F -6.0 °F 82% 30.57 in 10.0 mi West 4.6 mph - N/A   Clear
1:35 AM -1.7 °F -9.7 °F -6.0 °F 82% 30.58 in 10.0 mi West 3.5 mph - N/A   Clear
1:55 AM -0.9 °F -11.0 °F -5.3 °F 82% 30.58 in 10.0 mi West 4.6 mph - N/A   Clear
2:15 AM -2.6 °F - -6.9 °F 82% 30.58 in 10.0 mi Calm Calm - N/A   Clear
2:35 AM -2.6 °F - -6.3 °F 84% 30.56 in 10.0 mi Calm Calm - N/A   Clear
2:55 AM -4.0 °F - -8.0 °F 83% 30.56 in 10.0 mi Calm Calm - N/A   Clear
3:15 AM -3.5 °F - -7.1 °F 85% 30.56 in 10.0 mi Calm Calm - N/A   Clear
3:35 AM -5.8 °F - -10.1 °F 82% 30.55 in 10.0 mi Calm Calm - N/A   Clear
3:55 AM -6.0 °F - -9.8 °F 84% 30.55 in 10.0 mi Calm Calm - N/A   Clear
4:15 AM -5.8 °F - -9.6 °F 84% 30.55 in 10.0 mi Calm Calm - N/A   Clear
4:35 AM -6.0 °F - -9.8 °F 84% 30.54 in 10.0 mi Calm Calm - N/A   Clear
4:55 AM -6.5 °F - -10.5 °F 83% 30.54 in 10.0 mi Calm Calm - N/A   Clear
5:15 AM -7.2 °F - -11.4 °F 82% 30.53 in 10.0 mi Calm Calm - N/A   Clear
5:35 AM -6.7 °F - -11.0 °F 81% 30.53 in 10.0 mi Calm Calm - N/A   Clear
5:55 AM -6.5 °F - -10.5 °F 83% 30.53 in 10.0 mi Calm Calm - N/A   Clear
6:15 AM -7.1 °F - -11.2 °F 82% 30.52 in 10.0 mi Calm Calm - N/A   Clear
6:35 AM -6.7 °F - -11.0 °F 81% 30.52 in 10.0 mi Calm Calm - N/A   Clear
6:55 AM -7.2 °F - -11.7 °F 81% 30.53 in 7.0 mi Calm Calm - N/A   Clear
7:15 AM -6.7 °F - -10.8 °F 82% 30.52 in 10.0 mi Calm Calm - N/A   Clear
7:35 AM -7.6 °F - -11.7 °F 82% 30.52 in 10.0 mi Calm Calm - N/A   Clear
7:55 AM -4.7 °F - -8.3 °F 84% 30.53 in 10.0 mi Calm Calm - N/A   Scattered Clouds
8:15 AM -0.4 °F - -4.2 °F 84% 30.53 in 10.0 mi Calm Calm - N/A   Mostly Cloudy
8:35 AM 1.9 °F - -1.8 °F 84% 30.52 in 10.0 mi Calm Calm - N/A   Mostly Cloudy
8:55 AM 3.2 °F - -1.1 °F 82% 30.51 in 10.0 mi Calm Calm - N/A   Mostly Cloudy
9:15 AM 5.0 °F - 0.5 °F 82% 30.50 in 10.0 mi Calm Calm - N/A   Scattered Clouds
9:35 AM 8.1 °F 1.4 °F 2.1 °F 77% 30.48 in 10.0 mi South 3.5 mph - N/A   Scattered Clouds
9:55 AM 9.9 °F -1.1 °F 1.2 °F 68% 30.47 in 10.0 mi South 6.9 mph - N/A   Scattered Clouds
10:15 AM 9.5 °F 3.0 °F 0.5 °F 67% 30.47 in 10.0 mi South 3.5 mph - N/A   Mostly Cloudy
10:35 AM 10.0 °F 1.8 °F -0.0 °F 64% 30.46 in 10.0 mi SW 4.6 mph - N/A   Overcast
10:55 AM 10.9 °F 1.4 °F 0.3 °F 62% 30.44 in 10.0 mi South 5.8 mph - N/A   Overcast
11:15 AM 11.7 °F 2.3 °F 0.7 °F 61% 30.42 in 10.0 mi South 5.8 mph - N/A   Overcast
11:35 AM 12.2 °F 4.3 °F 0.7 °F 60% 30.40 in 10.0 mi South 4.6 mph - N/A   Overcast
11:55 AM 12.7 °F 3.6 °F 1.0 °F 60% 30.39 in 10.0 mi South 5.8 mph - N/A   Overcast
12:15 PM 13.3 °F 5.6 °F 0.7 °F 57% 30.37 in 10.0 mi South 4.6 mph - N/A   Mostly Cloudy
12:35 PM 15.3 °F 6.6 °F 1.2 °F 54% 30.35 in 10.0 mi South 5.8 mph - N/A   Scattered Clouds
12:55 PM 14.9 °F 9.2 °F 1.4 °F 55% 30.34 in 10.0 mi South 3.5 mph - N/A   Scattered Clouds
1:15 PM 15.8 °F 7.2 °F 1.4 °F 53% 30.32 in 10.0 mi South 5.8 mph - N/A   Scattered Clouds
1:35 PM 16.3 °F 6.7 °F 1.4 °F 52% 30.30 in 10.0 mi South 6.9 mph - N/A   Scattered Clouds
1:55 PM 17.1 °F 7.6 °F 0.7 °F 49% 30.28 in 10.0 mi SSE 6.9 mph - N/A   Scattered Clouds
2:15 PM 16.7 °F 9.6 °F 1.4 °F 51% 30.27 in 10.0 mi South 4.6 mph - N/A   Clear
2:35 PM 17.4 °F 8.0 °F 2.3 °F 52% 30.26 in 10.0 mi South 6.9 mph - N/A   Clear
2:55 PM 18.3 °F 10.2 °F 2.8 °F 51% 30.25 in 10.0 mi South 5.8 mph - N/A   Clear
3:15 PM 17.6 °F 9.3 °F 3.4 °F 54% 30.23 in 10.0 mi South 5.8 mph - N/A   Clear
3:35 PM 17.6 °F 9.3 °F 3.4 °F 54% 30.21 in 10.0 mi SSE 5.8 mph - N/A   Clear
3:55 PM 17.6 °F 9.3 °F 2.8 °F 53% 30.19 in 10.0 mi South 5.8 mph - N/A   Clear
4:15 PM 17.6 °F 9.3 °F 2.8 °F 53% 30.18 in 10.0 mi South 5.8 mph - N/A   Clear
4:35 PM 17.6 °F 8.2 °F 3.4 °F 54% 30.16 in 10.0 mi South 6.9 mph - N/A   Clear
4:55 PM 18.0 °F 12.7 °F 3.0 °F 52% 30.16 in 10.0 mi South 3.5 mph - N/A   Clear
5:15 PM 17.6 °F 8.2 °F 3.2 °F 53% 30.14 in 10.0 mi South 6.9 mph - N/A   Clear
5:35 PM 18.1 °F 10.0 °F 3.4 °F 53% 30.14 in 10.0 mi South 5.8 mph - N/A   Clear
5:55 PM 18.1 °F 10.0 °F 3.9 °F 54% 30.12 in 10.0 mi South 5.8 mph - N/A   Clear
6:15 PM 18.1 °F 8.9 °F 4.5 °F 55% 30.10 in 10.0 mi South 6.9 mph - N/A   Clear
6:35 PM 18.3 °F 8.2 °F 4.1 °F 54% 30.09 in 10.0 mi South 8.1 mph 20.7 mph N/A   Clear
6:55 PM 19.0 °F 10.0 °F 4.1 °F 52% 30.07 in 10.0 mi SSW 6.9 mph 25.3 mph N/A   Clear
7:15 PM 18.9 °F 8.8 °F 4.3 °F 53% 30.06 in 10.0 mi SSW 8.1 mph - N/A   Clear
7:35 PM 19.2 °F 8.4 °F 4.6 °F 53% 30.04 in 10.0 mi South 9.2 mph - N/A   Clear
7:55 PM 19.4 °F 7.9 °F 4.8 °F 53% 30.04 in 10.0 mi South 10.4 mph 19.6 mph N/A   Clear
8:15 PM 19.4 °F 10.4 °F 5.4 °F 55% 30.03 in 10.0 mi SSW 6.9 mph - N/A   Clear
8:35 PM 19.9 °F 10.1 °F 5.9 °F 55% 30.04 in 10.0 mi SSW 8.1 mph 17.3 mph N/A   Clear
8:55 PM 20.3 °F 12.5 °F 5.9 °F 54% 30.04 in 10.0 mi SW 5.8 mph - N/A   Clear
9:15 PM 20.3 °F 11.5 °F 6.6 °F 56% 30.02 in 10.0 mi SSW 6.9 mph 16.1 mph N/A   Clear
9:35 PM 20.1 °F 9.5 °F 7.2 °F 57% 30.01 in 10.0 mi SSW 9.2 mph - N/A   Clear
9:55 PM 19.9 °F 8.6 °F 7.2 °F 58% 30.01 in 10.0 mi SSW 10.4 mph 19.6 mph N/A   Clear
10:15 PM 19.8 °F 9.9 °F 7.5 °F 59% 30.00 in 10.0 mi SSW 8.1 mph - N/A   Clear
10:35 PM 19.9 °F 11.1 °F 7.9 °F 60% 29.99 in 10.0 mi SSW 6.9 mph 16.1 mph N/A   Clear
10:55 PM 20.7 °F 13.0 °F 8.4 °F 59% 29.98 in 10.0 mi SSW 5.8 mph 17.3 mph N/A   Clear
11:15 PM 20.8 °F 13.2 °F 8.8 °F 60% 29.97 in 10.0 mi SSW 5.8 mph 18.4 mph N/A   Clear
11:35 PM 21.0 °F 9.9 °F 9.0 °F 60% 29.96 in 10.0 mi SSW 10.4 mph - N/A   Clear
11:55 PM 21.0 °F 11.4 °F 9.5 °F 61% 29.95 in 10.0 mi SSW 8.1 mph - N/A   Clear